Wind_Speed
44 42 41 40 38 37 36 35 34 33 32 31 30 29 29 28 27 27 26 26 26 26 26 27 27 27 27 28 28 29 29 30 30 30 30 30 30 31 31 32 32 33 34
46 44 43 42 41 40 39 38 36 34 34 33 32 32 31 30 30 29 29 28 28 28 28 29 29 29 29 30 30 30 31 31 31 31 30 31 31 31 32 32 33 34 35
48 47 45 44 43 42 41 39 38 36 36 35 34 34 34 33 32 32 31 30 30 30 30 31 31 31 31 31 31 32 32 32 31 31 31 31 31 31 32 33 34 35 36
50 49 48 46 45 44 43 41 40 39 39 38 37 36 35 34 34 33 32 32 32 33 32 33 33 33 33 33 32 32 32 32 32 32 32 31 32 32 33 34 35 36 38
51 51 50 49 48 47 45 44 43 42 41 41 39 38 38 36 36 35 35 36 36 35 35 34 34 34 34 34 34 33 33 32 32 32 31 32 32 33 33 34 36 37 39
52 52 51 51 51 49 48 47 46 45 43 42 41 40 40 39 38 37 37 38 37 37 36 36 35 35 35 35 34 34 33 33 32 32 32 32 33 33 34 36 37 39 40
50 52 52 52 52 51 49 49 48 46 45 43 42 42 41 40 39 39 39 38 38 38 37 37 36 36 36 35 34 34 34 33 32 32 33 33 33 34 35 37 38 40 40
47 49 51 52 51 49 49 47 46 46 45 44 43 43 42 42 40 40 40 39 39 38 38 37 37 36 36 36 36 35 34 34 34 34 34 34 34 35 36 37 39 40 40
47 49 50 51 50 49 48 47 45 44 45 45 44 43 43 43 42 41 40 39 38 38 38 37 37 36 36 36 35 35 35 35 35 35 35 34 35 36 37 38 39 41 41
45 46 47 49 49 49 48 48 46 45 45 45 46 46 44 42 41 40 40 39 39 39 39 38 37 37 37 37 37 36 36 36 36 36 36 35 36 37 38 39 41 41 41
44 45 45 45 46 48 49 49 48 48 47 47 48 47 45 43 42 42 41 40 40 40 39 39 39 39 38 38 38 38 38 37 37 37 37 37 37 38 39 40 41 41 41
43 44 45 45 46 46 46 47 46 47 46 47 46 45 45 44 43 43 42 41 40 40 40 39 39 40 39 39 39 39 39 39 38 38 38 38 39 40 41 41 41 42 42
42 42 44 46 46 46 46 46 46 47 48 48 46 45 45 45 47 46 44 43 43 43 43 43 42 42 41 41 40 39 39 39 39 39 39 39 40 41 41 42 42 42 42
41 42 43 44 45 46 47 47 46 47 48 47 46 47 47 47 47 46 45 45 46 45 45 45 45 44 44 43 42 41 40 40 40 40 40 40 41 42 42 43 43 42 41
39 42 42 42 43 44 45 45 46 47 48 48 47 47 47 47 46 47 46 47 47 47 47 47 47 47 46 45 43 42 42 41 41 41 41 41 42 42 43 43 43 42 40
35 37 39 40 41 43 44 44 44 46 48 48 46 47 48 48 49 49 49 49 49 49 48 48 48 47 47 46 45 44 43 42 42 42 42 42 42 42 43 43 42 41 40
33 36 38 40 42 43 44 45 45 46 47 48 48 47 48 49 49 50 50 50 49 48 48 47 46 46 46 45 44 44 43 43 43 43 42 42 42 43 42 42 42 40 39
33 36 39 41 42 44 46 46 47 47 47 48 48 49 49 49 49 49 50 49 49 48 48 47 46 45 44 44 44 43 43 43 43 43 43 43 42 43 42 41 41 40 38
31 33 37 39 41 43 45 46 47 48 49 49 49 50 50 50 50 50 50 50 49 49 49 48 46 45 45 44 44 43 44 44 44 44 43 43 43 42 41 41 40 38 36
31 33 35 38 41 43 45 47 48 49 50 51 51 51 51 52 52 51 51 51 51 51 50 49 48 47 46 46 46 45 45 45 45 44 44 43 42 42 41 40 39 36 34
35 37 38 40 42 44 45 47 48 49 50 51 52 52 52 53 54 54 54 53 53 52 52 51 49 48 48 47 46 46 46 45 44 44 44 43 42 41 40 39 37 35 32
41 42 43 45 46 47 47 48 50 51 52 53 53 53 53 54 54 54 54 54 53 53 52 51 50 50 49 49 48 46 46 46 45 44 44 43 42 40 39 37 35 33 31
46 47 49 50 51 52 52 52 53 54 55 55 56 55 55 55 54 54 54 54 54 55 54 53 52 50 50 49 48 47 47 46 45 44 43 42 41 39 38 35 33 31 30
52 53 54 55 55 56 57 57 57 57 58 58 59 58 58 58 58 57 57 56 56 55 54 54 53 52 50 49 48 48 47 46 45 43 42 41 40 38 36 34 32 30 28
58 60 60 60 60 60 61 62 62 62 61 61 61 61 62 61 60 61 60 58 57 55 55 54 53 52 50 49 49 48 47 45 44 43 42 40 39 37 35 32 31 29 27
65 65 65 66 65 65 65 66 65 65 65 64 64 63 63 63 63 62 61 60 59 57 56 55 53 52 51 50 49 47 46 45 44 42 40 39 37 35 33 31 29 28 27
Wind_Direction
235 237 239 240 242 244 245 246 248 249 251 252 254 255 256 258 259 261 262 264 266 268 271 274 276 279 283 286 289 292 295 298 301 303 305 307 309 311 314 316 318 319 320
236 237 238 240 242 244 246 247 247 249 251 253 254 255 256 257 259 260 262 264 267 269 272 275 277 279 283 286 288 291 293 296 299 300 303 305 307 309 312 314 317 318 319
236 237 238 240 242 243 245 246 248 249 251 253 254 255 256 258 259 260 262 264 267 270 272 275 277 279 282 285 287 290 292 294 296 299 301 303 305 308 310 313 315 316 317
236 238 238 240 241 243 244 246 247 249 251 252 254 255 256 258 259 260 262 264 267 270 272 275 277 279 282 284 286 288 290 292 295 298 300 302 304 307 309 311 313 314 316
235 237 238 239 241 243 244 246 247 249 250 252 254 255 256 257 258 259 261 264 268 269 271 273 276 278 281 282 284 286 288 290 293 296 298 301 303 306 308 310 311 313 314
234 236 238 240 241 242 244 245 247 248 250 252 254 256 257 257 258 259 262 265 268 270 271 273 276 278 279 281 282 284 286 288 291 294 296 299 302 304 306 308 310 312 313
234 237 239 240 242 243 245 247 248 249 251 253 254 257 258 257 258 259 263 266 268 269 270 273 275 276 277 280 281 283 284 286 289 292 295 297 300 302 303 306 309 310 312
234 237 239 240 241 243 245 246 248 250 251 253 254 256 257 258 259 262 264 266 268 269 270 271 273 275 277 278 280 281 282 285 288 290 293 295 298 300 302 304 307 308 310
233 236 237 239 241 242 244 246 249 251 252 253 254 256 258 260 262 264 266 266 268 269 270 271 273 275 276 278 279 280 282 284 287 289 292 293 296 298 300 302 305 306 309
234 234 236 239 241 242 243 245 248 250 252 254 255 258 260 261 262 264 266 266 268 269 270 271 271 272 275 277 278 280 282 284 286 288 290 291 294 297 299 301 304 305 307
234 235 237 239 241 243 245 246 248 250 252 255 257 259 260 262 263 264 265 266 267 268 269 270 270 272 273 276 277 279 280 282 283 285 287 289 292 295 298 301 302 304 305
235 236 235 238 242 244 246 247 249 251 253 256 257 258 261 263 263 264 264 265 266 267 268 269 270 272 273 275 276 277 279 281 282 283 285 288 291 294 297 299 301 303 304
234 236 237 241 243 245 247 248 249 252 253 256 257 259 262 264 264 264 264 264 265 266 267 269 270 271 273 274 275 276 278 279 280 282 284 287 290 293 295 297 299 301 302
235 236 238 242 244 246 248 249 251 254 255 256 258 259 260 262 263 263 264 264 264 266 268 269 269 270 271 273 274 275 276 277 278 280 282 285 288 291 293 296 297 299 301
234 237 240 243 245 247 248 250 253 254 255 257 259 259 259 260 262 263 263 264 265 266 268 268 268 269 269 270 271 273 274 275 276 278 281 284 287 289 292 294 296 298 299
241 243 243 245 246 247 249 252 255 258 259 258 259 261 261 261 262 264 264 265 265 265 266 267 267 267 266 268 269 271 272 272 274 277 281 283 286 288 290 292 295 297 297
249 248 248 249 249 250 253 254 256 257 258 258 259 260 260 260 262 263 263 263 263 264 263 264 264 265 266 267 268 269 270 271 273 276 279 282 284 286 289 291 294 295 295
253 254 253 254 254 255 255 257 257 257 257 257 259 259 260 261 261 261 261 261 261 261 261 261 262 264 264 265 266 267 269 270 272 275 278 280 282 285 287 290 292 292 292
258 258 257 257 257 257 258 258 258 258 258 258 258 260 260 260 260 260 260 261 260 261 262 262 262 263 263 263 263 266 267 270 272 275 277 279 281 284 286 289 290 290 290
262 262 262 261 261 261 260 260 260 259 260 259 259 260 260 260 260 259 259 260 260 261 262 262 262 262 262 261 263 265 268 270 273 275 276 278 281 283 285 287 288 288 288
268 267 266 265 265 264 264 263 262 261 261 261 260 260 259 260 259 259 259 260 260 260 260 261 261 261 260 261 262 265 268 270 272 273 275 277 279 282 283 285 285 285 285
272 270 269 268 266 265 264 263 262 261 260 260 259 259 258 258 258 258 258 257 258 258 258 259 260 260 260 261 263 265 267 269 271 272 274 276 278 280 282 283 282 282 282
274 274 273 271 269 267 266 265 264 262 261 260 260 259 258 257 256 256 255 255 256 256 257 257 258 259 260 261 263 264 266 268 269 271 273 275 276 278 278 279 279 279 278
277 276 275 274 272 270 269 268 266 264 263 261 260 258 257 257 256 255 255 255 256 256 257 257 258 259 260 261 262 263 265 267 268 269 270 272 273 274 276 276 276 275 274
281 279 277 275 273 271 269 268 266 265 263 261 260 258 257 257 256 255 255 255 255 255 255 256 257 258 258 259 261 262 264 265 266 267 268 270 271 271 272 272 272 271 270
282 281 279 277 275 272 270 268 267 265 263 261 260 258 257 256 255 255 255 254 254 254 254 254 254 255 256 257 259 260 262 263 265 266 266 267 268 268 268 268 268 267 267
Height
5806 5810 5814 5817 5820 5822 5825 5827 5829 5831 5832 5834 5835 5836 5837 5838 5838 5839 5839 5839 5839 5838 5838 5838 5837 5836 5835 5834 5832 5831 5829 5827 5825 5822 5820 5818 5815 5813 5810 5807 5803 5800 5796
5798 5803 5806 5809 5812 5815 5818 5820 5822 5824 5826 5827 5829 5830 5831 5832 5832 5833 5833 5833 5833 5833 5833 5832 5832 5831 5830 5828 5827 5825 5823 5821 5819 5817 5815 5813 5810 5808 5805 5802 5798 5795 5791
5790 5794 5798 5802 5805 5807 5810 5813 5815 5817 5819 5820 5822 5823 5824 5825 5826 5826 5827 5827 5827 5827 5827 5826 5826 5825 5824 5823 5821 5820 5818 5816 5814 5812 5809 5807 5805 5802 5799 5796 5793 5790 5786
5782 5786 5790 5793 5797 5799 5802 5805 5808 5810 5812 5813 5815 5816 5817 5818 5819 5820 5820 5820 5820 5820 5820 5820 5819 5818 5817 5816 5815 5813 5812 5810 5808 5806 5804 5801 5799 5797 5794 5791 5787 5784 5780
5772 5777 5781 5785 5788 5791 5794 5797 5800 5802 5804 5805 5807 5808 5810 5811 5812 5813 5813 5813 5813 5813 5813 5813 5812 5811 5810 5809 5808 5807 5805 5804 5802 5800 5798 5796 5793 5791 5788 5785 5781 5777 5773
5763 5768 5772 5776 5779 5782 5785 5788 5791 5793 5795 5797 5799 5801 5802 5803 5804 5805 5806 5806 5806 5806 5806 5805 5804 5804 5803 5802 5801 5800 5799 5797 5795 5794 5792 5789 5787 5784 5781 5778 5775 5771 5767
5755 5759 5763 5766 5770 5773 5776 5779 5781 5784 5786 5788 5790 5792 5793 5794 5795 5796 5797 5798 5798 5798 5798 5797 5797 5796 5795 5795 5793 5792 5791 5790 5789 5787 5785 5783 5780 5777 5774 5771 5767 5763 5759
5746 5750 5754 5757 5761 5764 5767 5769 5772 5775 5777 5779 5781 5782 5784 5786 5787 5788 5788 5789 5790 5789 5789 5789 5789 5788 5787 5787 5786 5785 5784 5782 5781 5780 5778 5775 5773 5770 5767 5764 5760 5756 5752
5738 5742 5745 5748 5751 5755 5758 5761 5763 5766 5768 5770 5772 5773 5775 5777 5778 5779 5779 5780 5780 5780 5780 5780 5780 5780 5779 5778 5777 5777 5776 5775 5773 5772 5770 5768 5765 5762 5759 5756 5752 5748 5744
5730 5734 5737 5740 5743 5746 5749 5751 5754 5757 5758 5760 5762 5764 5766 5767 5768 5769 5770 5770 5771 5771 5771 5772 5771 5771 5770 5770 5769 5769 5768 5766 5765 5763 5761 5759 5757 5754 5751 5748 5744 5740 5736
5722 5726 5729 5732 5735 5737 5740 5742 5745 5747 5749 5751 5752 5754 5755 5757 5758 5760 5761 5761 5762 5762 5762 5762 5762 5762 5761 5761 5760 5760 5759 5758 5756 5755 5753 5751 5748 5746 5743 5739 5736 5732 5728
5715 5718 5720 5723 5726 5729 5731 5734 5735 5738 5740 5741 5743 5744 5746 5747 5749 5750 5751 5751 5752 5752 5752 5752 5752 5752 5752 5751 5751 5750 5750 5749 5747 5746 5744 5742 5739 5737 5734 5730 5727 5724 5720
5707 5710 5712 5715 5718 5720 5722 5724 5726 5728 5730 5732 5733 5735 5736 5737 5738 5739 5740 5741 5742 5742 5743 5743 5742 5742 5742 5742 5741 5741 5740 5739 5738 5736 5734 5733 5730 5727 5724 5721 5718 5715 5711
5699 5701 5704 5706 5709 5711 5713 5715 5716 5719 5720 5721 5723 5724 5725 5727 5728 5728 5729 5730 5730 5731 5732 5732 5732 5731 5731 5731 5731 5731 5730 5729 5728 5726 5725 5723 5721 5718 5715 5712 5709 5706 5703
5691 5693 5695 5698 5700 5701 5703 5704 5706 5708 5709 5711 5712 5713 5714 5715 5716 5717 5717 5718 5719 5719 5720 5720 5720 5720 5720 5720 5720 5720 5719 5719 5718 5716 5715 5713 5711 5708 5705 5703 5700 5697 5694
5682 5685 5687 5688 5690 5692 5693 5694 5696 5697 5698 5699 5700 5701 5702 5703 5704 5705 5705 5706 5706 5707 5708 5708 5708 5708 5708 5708 5709 5708 5708 5707 5707 5705 5704 5702 5700 5698 5696 5693 5690 5687 5685
5674 5676 5677 5678 5680 5681 5682 5683 5685 5685 5686 5687 5688 5689 5690 5690 5691 5692 5692 5693 5694 5694 5695 5696 5696 5696 5696 5696 5697 5697 5696 5696 5695 5694 5693 5692 5690 5688 5686 5683 5681 5678 5676
5665 5667 5668 5669 5670 5670 5671 5672 5673 5673 5674 5674 5675 5676 5676 5677 5678 5679 5679 5680 5681 5681 5682 5683 5683 5683 5684 5684 5685 5685 5685 5684 5684 5683 5682 5681 5679 5677 5675 5673 5671 5669 5666
5656 5657 5657 5658 5658 5658 5659 5659 5660 5660 5661 5661 5662 5662 5663 5664 5665 5665 5666 5667 5667 5668 5669 5670 5670 5671 5672 5672 5673 5673 5673 5672 5672 5671 5670 5669 5668 5667 5665 5663 5661 5659 5657
5647 5647 5647 5646 5646 5646 5646 5646 5646 5647 5647 5648 5648 5649 5649 5650 5651 5651 5652 5653 5654 5655 5656 5657 5658 5659 5659 5659 5660 5661 5661 5661 5660 5660 5659 5658 5657 5656 5655 5653 5652 5650 5648
5637 5636 5635 5634 5633 5633 5632 5632 5632 5632 5632 5633 5633 5634 5634 5635 5636 5636 5638 5638 5639 5640 5642 5643 5644 5645 5646 5647 5647 5648 5648 5648 5648 5648 5648 5647 5646 5645 5644 5643 5642 5640 5639
5624 5622 5621 5620 5619 5618 5617 5616 5616 5616 5616 5617 5617 5618 5618 5619 5620 5621 5622 5623 5625 5626 5627 5629 5630 5631 5632 5633 5634 5635 5636 5636 5636 5637 5636 5636 5635 5635 5634 5633 5632 5631 5630
5609 5607 5605 5604 5603 5601 5600 5599 5599 5599 5599 5599 5600 5601 5602 5603 5603 5605 5606 5608 5609 5611 5613 5614 5616 5617 5618 5620 5621 5622 5623 5623 5624 5624 5624 5624 5624 5624 5623 5622 5622 5621 5621
5592 5590 5588 5586 5584 5582 5581 5580 5579 5580 5580 5580 5581 5582 5583 5585 5586 5587 5589 5591 5593 5595 5597 5599 5602 5603 5604 5605 5607 5609 5610 5611 5611 5612 5612 5613 5613 5613 5613 5613 5612 5612 5612
5573 5570 5567 5565 5563 5561 5559 5559 5558 5559 5559 5560 5561 5562 5563 5565 5567 5569 5571 5573 5576 5578 5580 5583 5585 5587 5589 5591 5593 5595 5597 5598 5599 5599 5600 5601 5601 5602 5602 5603 5603 5603 5603
5550 5547 5544 5542 5540 5538 5537 5535 5535 5535 5537 5538 5539 5541 5542 5544 5547 5548 5551 5555 5558 5561 5564 5567 5569 5572 5575 5577 5579 5582 5583 5585 5586 5588 5589 5590 5590 5591 5592 5593 5593 5594 5595